SHIJIAN-23 (SJ-23)

Last updated on Sun Apr 12 2026 00:02:56 GMT+0000 (Coordinated Universal Time)

1 55131U 23002A 26101.80474101 -.00000077 00000+0 00000+0 0 9990 2 55131 3.5460 79.1307 0005567 270.0922 298.9383 1.00476923 11845
UTC large
Height (km)
Speed (km/s)
/
Latitude / Longitude
Inclination (degrees)
Orbital Period (minutes)
Azimuth
Elevation
Range (km)
Doppler Factor

Next 0 passes for location: London (51.5072 / 0.1276)

Sorry there are no passes over London.
SHIJIAN-23 (SJ-23)